Location: York
(31.8935°S, 116.7682°E)
Time: 09:52:38
(UTC+08:00)

ISS - Visible Passes

Search period start: 06 December 2023 00:00
Search period end: 16 December 2023 00:00
Orbit: 415 x 417 km, 51.6° (Epoch: 05 December)

Date Brightness Start Highest point End Pass type
(mag) Time Alt. Az. Time Alt. Az. Time Alt. Az.
09 Dec -0.9 04:20:39 10° SSW 04:23:24 22° SE 04:26:08 10° E visible
09 Dec -3.7 20:58:58 10° NW 21:02:21 80° SW 21:05:46 10° SE visible
10 Dec -0.4 03:32:46 10° S 03:34:41 14° SSE 03:36:36 10° ESE visible
10 Dec -3.6 20:10:35 10° NNW 20:13:51 48° NE 20:17:09 10° ESE visible
10 Dec -0.5 21:48:40 10° WSW 21:50:47 15° SSW 21:52:55 10° S visible
11 Dec -3.4 04:19:46 10° SW 04:23:11 70° SE 04:26:32 10° NE visible
11 Dec -1.2 20:59:14 10° W 21:02:05 25° SW 21:04:58 10° SSE visible
12 Dec -2.0 03:31:26 10° SSW 03:34:36 35° SE 03:37:44 10° ENE visible
12 Dec -2.4 20:10:13 10° WNW 20:13:28 44° SW 20:16:45 10° SSE visible
13 Dec -1.0 02:43:17 10° SSW 02:45:57 21° SE 02:48:35 10° E visible
13 Dec -2.9 04:19:41 10° WSW 04:22:42 30° NW 04:25:41 10° NNE visible
13 Dec 0.0 21:01:15 10° SW 21:02:06 11° SSW 21:02:57 10° SSW visible
14 Dec -0.4 01:55:30 10° S 01:57:14 13° SSE 01:58:57 10° ESE visible
14 Dec -3.8 03:30:53 10° SW 03:34:16 63° NW 03:37:35 10° NE visible
14 Dec -0.5 20:11:04 10° WSW 20:13:20 17° SW 20:15:38 10° S visible
